TimeCST,TemperatureF,Dew PointF,Humidity,Sea Level PressureIn,VisibilityMPH,Wind Direction,Wind SpeedMPH,Gust SpeedMPH,PrecipitationIn,Events,Conditions,WindDirDegrees,DateUTC
12:15 AM,33.8,26.6,75,30.25,10.0,ESE,10.4,-,N/A,,Scattered Clouds,110,2013-03-09 06:15:00
12:35 AM,33.8,26.6,75,30.24,10.0,ESE,9.2,-,N/A,,Clear,120,2013-03-09 06:35:00
12:55 AM,33.8,26.6,75,30.24,10.0,ESE,8.1,-,N/A,,Scattered Clouds,120,2013-03-09 06:55:00
1:15 AM,33.8,26.6,75,30.24,10.0,ESE,9.2,-,N/A,,Overcast,120,2013-03-09 07:15:00
1:35 AM,33.8,26.6,75,30.22,10.0,ESE,11.5,-,N/A,,Mostly Cloudy,120,2013-03-09 07:35:00
1:55 AM,33.8,26.6,75,30.20,10.0,ESE,12.7,-,N/A,,Mostly Cloudy,120,2013-03-09 07:55:00
2:15 AM,33.8,26.6,75,30.18,10.0,ESE,11.5,-,N/A,,Mostly Cloudy,110,2013-03-09 08:15:00
2:35 AM,33.8,26.6,75,30.17,10.0,ESE,15.0,21.9,N/A,,Partly Cloudy,120,2013-03-09 08:35:00
2:55 AM,33.8,26.6,75,30.16,10.0,ESE,11.5,-,N/A,,Mostly Cloudy,120,2013-03-09 08:55:00
3:15 AM,35.6,26.6,70,30.16,10.0,SE,12.7,17.3,N/A,,Overcast,130,2013-03-09 09:15:00
3:35 AM,33.8,26.6,75,30.17,10.0,SE,12.7,18.4,N/A,,Overcast,130,2013-03-09 09:35:00
3:55 AM,35.6,28.4,75,30.18,10.0,SE,9.2,16.1,N/A,,Overcast,130,2013-03-09 09:55:00
4:15 AM,35.6,28.4,75,30.18,10.0,SE,9.2,17.3,N/A,,Overcast,140,2013-03-09 10:15:00
4:35 AM,35.6,28.4,75,30.18,10.0,SE,6.9,-,N/A,,Overcast,140,2013-03-09 10:35:00
4:55 AM,35.6,28.4,75,30.17,10.0,SE,9.2,-,N/A,,Overcast,130,2013-03-09 10:55:00
5:15 AM,35.6,28.4,75,30.17,10.0,SE,9.2,17.3,N/A,,Overcast,140,2013-03-09 11:15:00
5:35 AM,33.8,28.4,81,30.17,8.0,SE,9.2,-,0.01,,Overcast,130,2013-03-09 11:35:00
5:55 AM,33.8,30.2,87,30.16,5.0,SE,9.2,16.1,0.04,,Overcast,130,2013-03-09 11:55:00
6:15 AM,33.8,30.2,87,30.15,6.0,SE,9.2,-,0.02,,Overcast,140,2013-03-09 12:15:00
6:35 AM,33.8,30.2,87,30.15,3.0,SE,9.2,-,0.06,,Overcast,140,2013-03-09 12:35:00
6:55 AM,33.8,30.2,87,30.14,5.0,SE,10.4,-,0.06,,Overcast,130,2013-03-09 12:55:00
7:15 AM,35.6,30.2,81,30.14,8.0,SE,9.2,-,N/A,,Overcast,140,2013-03-09 13:15:00
7:35 AM,35.6,30.2,81,30.14,8.0,SSE,8.1,-,N/A,,Overcast,150,2013-03-09 13:35:00
7:55 AM,35.6,30.2,81,30.15,10.0,SSE,5.8,-,N/A,,Overcast,150,2013-03-09 13:55:00
8:15 AM,35.6,30.2,81,30.15,8.0,SSE,6.9,-,N/A,,Overcast,150,2013-03-09 14:15:00
8:35 AM,35.6,30.2,81,30.13,10.0,SE,10.4,-,N/A,,Overcast,140,2013-03-09 14:35:00
8:55 AM,35.6,30.2,81,30.11,10.0,SE,10.4,17.3,N/A,,Overcast,140,2013-03-09 14:55:00
9:15 AM,35.6,30.2,81,30.10,10.0,SE,9.2,16.1,N/A,,Overcast,140,2013-03-09 15:15:00
9:35 AM,35.6,30.2,81,30.08,10.0,SE,11.5,17.3,N/A,,Overcast,130,2013-03-09 15:35:00
9:55 AM,35.6,30.2,81,30.06,10.0,SE,11.5,17.3,N/A,,Overcast,140,2013-03-09 15:55:00
10:15 AM,35.6,30.2,81,30.06,10.0,SE,11.5,18.4,N/A,,Overcast,140,2013-03-09 16:15:00
10:35 AM,35.6,30.2,81,30.06,10.0,SE,8.1,-,N/A,,Overcast,140,2013-03-09 16:35:00
10:55 AM,37.4,30.2,75,30.06,10.0,SSE,9.2,16.1,N/A,,Overcast,150,2013-03-09 16:55:00
11:15 AM,37.4,30.2,75,30.04,10.0,SE,6.9,16.1,N/A,,Overcast,140,2013-03-09 17:15:00
11:35 AM,37.4,30.2,75,30.03,10.0,SSE,8.1,-,N/A,,Overcast,150,2013-03-09 17:35:00
11:55 AM,37.4,32.0,81,30.02,10.0,SSE,10.4,17.3,N/A,,Overcast,150,2013-03-09 17:55:00
12:15 PM,37.4,32.0,81,30.01,10.0,SE,9.2,17.3,N/A,,Overcast,140,2013-03-09 18:15:00
12:35 PM,37.4,32.0,81,30.00,10.0,SE,8.1,-,N/A,,Overcast,140,2013-03-09 18:35:00
12:55 PM,37.4,32.0,81,29.98,10.0,SE,9.2,-,N/A,,Overcast,140,2013-03-09 18:55:00
1:15 PM,37.4,32.0,81,29.97,10.0,SE,9.2,-,N/A,,Overcast,140,2013-03-09 19:15:00
1:35 PM,37.4,33.8,87,29.94,7.0,SE,9.2,-,N/A,,Overcast,130,2013-03-09 19:35:00
1:55 PM,37.4,33.8,87,29.94,4.0,SE,8.1,-,0.01,,Overcast,140,2013-03-09 19:55:00
2:15 PM,35.6,33.8,93,29.92,5.0,SE,8.1,-,0.01,,Overcast,130,2013-03-09 20:15:00
2:35 PM,35.6,33.8,93,29.91,5.0,SE,12.7,17.3,0.01,,Overcast,130,2013-03-09 20:35:00
2:55 PM,37.4,33.8,87,29.90,8.0,ESE,10.4,16.1,0.01,,Overcast,120,2013-03-09 20:55:00
3:15 PM,37.4,33.8,87,29.90,10.0,ESE,9.2,-,N/A,,Overcast,120,2013-03-09 21:15:00
3:35 PM,37.4,33.8,87,29.88,5.0,SE,11.5,16.1,N/A,,Overcast,130,2013-03-09 21:35:00
3:55 PM,37.4,33.8,87,29.87,10.0,ESE,10.4,-,N/A,,Overcast,120,2013-03-09 21:55:00
4:15 PM,37.4,33.8,87,29.86,10.0,ESE,10.4,-,N/A,,Overcast,120,2013-03-09 22:15:00
4:35 PM,37.4,33.8,87,29.84,10.0,ESE,11.5,17.3,N/A,,Overcast,120,2013-03-09 22:35:00
4:55 PM,37.4,33.8,87,29.84,10.0,SE,12.7,17.3,N/A,,Overcast,130,2013-03-09 22:55:00
5:15 PM,39.2,33.8,81,29.84,10.0,SE,12.7,17.3,N/A,,Overcast,130,2013-03-09 23:15:00
5:35 PM,39.2,33.8,81,29.85,10.0,SE,9.2,-,N/A,,Overcast,130,2013-03-09 23:35:00
5:55 PM,39.2,33.8,81,29.86,10.0,SE,5.8,-,N/A,,Overcast,140,2013-03-09 23:55:00
6:15 PM,39.2,33.8,81,29.85,10.0,SE,6.9,-,N/A,,Overcast,130,2013-03-10 00:15:00
6:35 PM,37.4,33.8,87,29.85,10.0,ESE,8.1,-,N/A,,Overcast,120,2013-03-10 00:35:00
6:55 PM,39.2,33.8,81,29.85,10.0,ESE,5.8,-,N/A,,Overcast,120,2013-03-10 00:55:00
7:15 PM,39.2,33.8,81,29.87,10.0,Calm,Calm,-,N/A,,Overcast,0,2013-03-10 01:15:00
7:35 PM,37.4,33.8,87,29.87,10.0,Calm,Calm,-,N/A,,Overcast,0,2013-03-10 01:35:00
7:55 PM,37.4,33.8,87,29.85,10.0,East,4.6,-,N/A,,Overcast,100,2013-03-10 01:55:00
8:15 PM,37.4,33.8,87,29.85,10.0,East,6.9,-,N/A,,Overcast,100,2013-03-10 02:15:00
8:55 PM,37.4,33.8,87,29.83,10.0,ESE,5.8,-,N/A,,Overcast,120,2013-03-10 02:55:00
9:15 PM,37.4,33.8,87,29.84,10.0,ESE,5.8,-,N/A,,Overcast,110,2013-03-10 03:15:00
9:35 PM,35.6,33.8,93,29.84,8.0,East,5.8,-,N/A,,Overcast,80,2013-03-10 03:35:00
9:55 PM,37.4,33.8,87,29.84,10.0,Calm,Calm,-,0.01,,Overcast,0,2013-03-10 03:55:00
10:15 PM,37.4,35.6,93,29.81,8.0,ESE,13.8,18.4,0.01,,Overcast,110,2013-03-10 04:15:00
10:35 PM,39.2,35.6,87,29.80,10.0,ESE,10.4,-,0.01,,Overcast,120,2013-03-10 04:35:00
10:55 PM,39.2,35.6,87,29.79,10.0,SE,9.2,16.1,0.01,,Overcast,130,2013-03-10 04:55:00
11:15 PM,41.0,35.6,81,29.79,10.0,SE,8.1,-,N/A,,Overcast,130,2013-03-10 05:15:00
11:35 PM,41.0,35.6,81,29.79,10.0,SE,9.2,-,N/A,,Overcast,130,2013-03-10 05:35:00
11:55 PM,39.2,33.8,81,29.79,10.0,SE,9.2,-,N/A,,Overcast,140,2013-03-10 05:55:00